Regional Weather Roundup
Issued by NWS Bismarck, ND

Home | Current Version | Previous Version | Text Only | Print | Product List | Glossary On
Versions: 1 2 3 4 5 6 7 8 9 10 11 12 13 14 15 16 17 18 19 20 21 22 23 24 25 26 27 28 29 30 31 32 33 34 35 36 37 38 39 40 41 42 43 44 45 46 47 48 49 50
000
ASUS43 KBIS 312010
RWRBIS

NWR BROADCAST TEXT
NATIONAL WEATHER SERVICE BISMARCK ND
300 PM CDT THU JUL 31 2014

NOTE: "FAIR" INDICATES FEW OR NO CLOUDS BELOW 12,000 FEET WITH NO
SIGNIFICANT WEATHER AND/OR OBSTRUCTIONS TO VISIBILITY.


CITY           SKY/WX    TMP DP  RH WIND       PRES   REMARKS
WILLISTON      MOSUNNY   84  58  40 S8        30.05F
MINOT          SUNNY     80  52  37 NE6       30.07F
MINOT AFB      SUNNY     80  58  46 SW6       30.07S
BISMARCK       SUNNY     85  53  33 SW9       30.08S
DICKINSON      SUNNY     85  51  31 NW7       30.08S
GARRISON         N/A     81  59  47 VRB3      30.08F
HETTINGER ARPT MOSUNNY   86  50  28 MISG      30.10F
JAMESTOWN      MOSUNNY   81  54  39 VRB6      30.06S
CARRINGTON     FAIR      79  59  50 N6        30.08S
CROSBY         FAIR      81  59  47 SE6       30.07S
HARVEY         FAIR      81  57  44 NW3       30.08S
HAZEN            N/A     82  54  36 SE5       30.08S
LINTON         FAIR      82  54  36 E6        30.07S
MANDAN         FAIR      81  57  44 W5        30.09S
RUGBY          FAIR      79  59  50 W5        30.06F
STANLEY        FAIR      77  57  50 S7        30.10R
TIOGA          FAIR      81  57  44 S7        30.11F
WATFORD CITY   FAIR      84  54  34 NE7       30.05S
$$

CITY           SKY/WX    TMP DP  RH WIND       PRES   REMARKS
GRAND FORKS    MOSUNNY   83  61  47 NW7       30.01S
GRAND FORKS AF SUNNY     82  59  46 NE6       30.02S
DEVILS LAKE    SUNNY     81  55  41 NW6       30.05S
FARGO          SUNNY     83  57  41 N8        30.01F
CANDO          FAIR      82  57  42 N6        30.06S
CAVALIER       FAIR      81  61  50 N5        30.01F
GRAFTON        FAIR      81  61  50 N8        30.01S
GWINNER        CLEAR     82  57  42 NE8       30.06F
LANGDON        FAIR      82  55  39 NW12      30.05F
ROLLA            N/A     79  54  41 NW7       30.09S
WALHALLA       FAIR      81  63  54 NW3         N/A
$$

CITY           SKY/WX    TMP DP  RH WIND       PRES   REMARKS
ABERDEEN       PTSUNNY   79  53  40 E3        30.06S
MOBRIDGE       SUNNY     83  55  38 CALM      30.04F
BUFFALO          N/A     88  46  23 VRB6      30.06F
RAPID CITY     SUNNY     85  52  32 CALM      30.15F
GLASGOW        SUNNY     95  39  14 VRB3      29.98F HX  91
SIDNEY         SUNNY     91  54  27 S10       30.04F
WOLF POINT     SUNNY     97  44  16 SW10      29.99F HX  93
GLENDIVE       MOSUNNY   91  45  19 S10G21    30.06S
MILES CITY     SUNNY     94  35  12 W12       30.05F
BAKER          PTSUNNY   86  44  23 W15G21    30.11F
$$

CITY           SKY/WX    TMP DP  RH WIND       PRES   REMARKS
BILLINGS       MOSUNNY   90  39  16 SW10      30.11F
GREAT FALLS    SUNNY     92  37  14 W8G22     30.10F
REGINA         PTSUNNY   82  61  47 SE13G18   30.05R
ESTEVAN        MOSUNNY   81  59  47 SE7       30.08S
$$




USA.gov is the U.S. government's official web portal to all federal, state and local government web resources and services.